User: anonymous   Login
Location: Arborea
(39.7744°N, 8.5819°E)
Time: 23:41:40
(UTC+00:00)
Language:

Cosmos 1000 Rocket - Orbit

View from above orbital plane
View from above orbital plane
View from above satellite
View from above satellite

Ground track
Ground track

The orbit data is extracted from the following two-line orbital elements,

1 10777U 78034B   23332.42770641  .00000100  00000-0  84464-4 0  9999
2 10777  82.9412 278.6293 0027620  80.8038  41.8898 13.77543336294602
Epoch (UTC): 28 November 2023 10:15:53
Eccentricity: 0.0027620
inclination: 82.9412°
perigee height: 952 km
apogee height: 993 km
right ascension of ascending node: 278.6293°
argument of perigee: 80.8038°
revolutions per day: 13.77543336
mean anomaly at epoch: 41.8898°
orbit number at epoch: 29460

The dashed part of the orbit path shows where the satellite is in the earth's shadow,  

DLR